[[{"header":{"parameterUnit":"m.s-1","parameterCategory":2,"la1":30.2991,"la2":30.254,"lo1":-89.0895,"lo2":-89.0444,"dy":0.0017,"dx":0.0017,"nx":28,"ny":28,"refTime":"2025-12-21T09:00:00:Z","depth":"0","parameterNumber":2,"parameterNumberName":"U-component_of_CURRENTS"},"data":[0,0,0,0,0,0,0,0,0,0,0,0,0,0,0,0,0,0,0,0,0,0,0,0,0,0,0,0,0,0,0,0,0,0,0,0,0,0,0,0,0,0,0,0,0,0,0,0,0,0,0,0,0,0,0,0,0,0,-0.3008,-0.3009,0,-0.3039,-0.3039,-0.304,-0.2998,-0.2997,-0.2995,-0.2994,-0.297,-0.297,-0.2971,0,0,0,0,0,0,0,0,0,0,0,0,0,-0.2919,-0.2921,-0.3008,-0.3009,-0.3009,-0.3039,-0.3039,-0.304,-0.2998,-0.2996,-0.2995,-0.2993,-0.2969,-0.297,-0.2971,0,0,0,0,0,0,0,0,0,0,0,0,0,-0.2952,-0.2921,-0.3008,-0.2994,-0.2993,-0.3039,-0.3039,-0.304,-0.2998,-0.2996,-0.2995,-0.2993,-0.2969,-0.297,-0.2971,-0.3014,0,0,-0.2973,-0.2974,0,0,0,0,0,0,0,0,-0.295,-0.2955,-0.2995,-0.2995,-0.2994,-0.3015,-0.2999,-0.3029,-0.2999,-0.2994,-0.2994,-0.2992,-0.2983,-0.2982,-0.299,-0.3013,-0.3012,-0.2973,-0.2974,-0.2974,-0.2974,0,0,0,0,0,0,0,-0.2948,-0.2954,-0.3018,-0.2996,-0.2996,-0.2989,-0.2991,-0.3005,-0.2996,-0.2994,-0.2992,-0.3,-0.2981,-0.2989,-0.2989,-0.3012,-0.2973,-0.2974,-0.2975,-0.2975,-0.3031,-0.3032,0,0,0,0,0,0,-0.2952,-0.2952,-0.3017,-0.3019,-0.297,-0.2992,-0.2994,-0.3008,-0.2997,-0.2994,-0.3001,-0.2998,-0.2989,-0.2988,-0.2988,-0.3011,-0.2974,-0.2975,-0.2975,-0.303,-0.3031,-0.3033,0,0,0,0,0,0,-0.295,-0.2957,-0.3016,-0.2987,-0.2995,-0.2996,-0.3011,-0.301,-0.3008,-0.3003,-0.2999,-0.3,-0.2987,-0.2986,-0.2995,-0.3011,-0.2975,-0.2976,-0.3029,-0.3031,-0.3032,-0.3076,0,0,0,0,0,0,-0.2947,-0.2957,-0.2964,-0.2988,-0.2997,-0.3042,-0.3014,-0.3012,-0.3018,-0.3013,-0.3002,-0.2998,-0.2985,-0.2994,-0.2996,-0.3011,-0.2977,-0.3028,-0.303,-0.3032,-0.3073,-0.3079,-0.3084,0,0,0,0,0,-0.2944,-0.2962,-0.2964,-0.2972,-0.3008,-0.3043,-0.3046,-0.3038,-0.302,-0.3027,-0.3016,-0.2997,-0.3007,-0.2996,-0.2998,-0.3014,-0.3027,-0.3029,-0.3031,-0.3071,-0.3078,-0.3084,0,0,0,0,0,0,-0.2924,-0.2961,-0.2963,-0.299,-0.3015,-0.3036,-0.3042,-0.3043,-0.3042,-0.3031,-0.3016,-0.3013,-0.3026,-0.3018,-0.3006,-0.3035,-0.3013,-0.3015,-0.3042,-0.3048,-0.3053,-0.3047,-0.2977,0,0,0,0,0,-0.2927,-0.2945,-0.2983,-0.3,-0.3015,-0.303,-0.3041,-0.3043,-0.305,-0.3047,-0.3042,-0.3036,-0.3043,-0.3041,-0.3047,-0.3068,-0.3042,-0.3078,-0.3083,-0.3088,-0.3084,-0.3069,-0.3073,-0.304,-0.304,-0.304,0,0,-0.292,-0.2945,-0.2952,-0.2997,-0.3011,-0.3043,-0.303,-0.3052,-0.3071,-0.3047,-0.306,-0.3057,-0.3053,-0.3072,-0.3077,-0.3063,-0.3082,-0.309,-0.3094,-0.3088,-0.3072,-0.3075,-0.3078,-0.3042,-0.3041,-0.3041,0,0,-0.2922,-0.2943,-0.2961,-0.2992,-0.3027,-0.3045,-0.3054,-0.3083,-0.3084,-0.3109,-0.3094,-0.3099,-0.311,-0.3111,-0.3112,-0.3152,-0.3112,-0.3153,-0.3171,-0.3158,-0.316,-0.3162,-0.3123,-0.3121,-0.3152,-0.3153,-0.3153,0,-0.2911,-0.2944,-0.297,-0.3004,-0.3027,-0.3048,-0.3077,-0.3098,-0.3122,-0.3129,-0.3114,-0.3129,-0.3129,-0.3148,-0.316,-0.3163,-0.3137,-0.3148,-0.3164,-0.3165,-0.3166,-0.3125,-0.3122,-0.3155,-0.3155,-0.3154,-0.3154,0,-0.2931,-0.2961,-0.2977,-0.3025,-0.3057,-0.3085,-0.3127,-0.3149,-0.3154,-0.3167,-0.3184,-0.3183,-0.3185,-0.3194,-0.3189,-0.3203,-0.3175,-0.3174,-0.3145,-0.3171,-0.3127,-0.3123,-0.3158,-0.3158,-0.3157,-0.3156,0,0,-0.289,-0.2974,-0.2976,-0.3004,-0.307,-0.3097,-0.3142,-0.3184,-0.3203,-0.3218,-0.3233,-0.3249,-0.3237,-0.3238,-0.3233,-0.3224,-0.3212,-0.3202,-0.32,-0.3158,-0.3158,-0.3064,-0.305,-0.321,-0.321,-0.321,-0.3121,0,-0.2891,-0.2952,-0.2996,-0.3047,-0.3081,-0.313,-0.3172,-0.3213,-0.3235,-0.3259,-0.3259,-0.327,-0.3258,-0.3256,-0.3249,-0.3234,-0.3205,-0.3235,-0.3143,-0.314,-0.3049,-0.3044,-0.293,-0.2835,-0.3116,-0.3116,-0.3115,0,-0.2886,-0.2932,-0.2983,-0.3062,-0.3081,-0.3115,-0.3176,-0.3218,-0.3267,-0.3282,-0.3292,-0.3293,-0.3298,-0.3276,-0.3237,-0.3255,-0.3203,-0.3176,-0.3172,-0.3064,-0.3038,-0.2857,-0.2816,-0.2789,-0.3108,-0.3109,-0.3109,0,-0.2828,-0.2915,-0.2951,-0.2981,-0.3078,-0.3103,-0.3148,-0.3211,-0.3241,-0.3287,-0.3299,-0.3309,-0.3295,-0.3264,-0.3211,-0.3224,-0.3146,-0.3158,-0.3013,-0.3005,-0.2879,-0.286,-0.2795,-0.31,-0.31,-0.31,-0.3101,0,-0.2805,-0.2831,-0.2926,-0.2946,-0.2984,-0.3068,-0.3105,-0.3156,-0.3221,-0.3245,-0.3292,-0.3292,-0.3289,-0.325,-0.321,-0.3089,-0.3137,-0.3001,-0.2975,-0.289,-0.2874,-0.2821,-0.2846,-0.3097,-0.3098,-0.3098,-0.3099,0,-0.2723,-0.2792,-0.2833,-0.293,-0.2955,-0.2976,-0.3067,-0.3098,-0.3172,-0.3202,-0.3214,-0.3263,-0.3213,-0.3181,-0.3117,-0.3056,-0.2914,-0.2911,-0.2798,-0.2759,-0.2603,-0.2635,-0.2528,-0.2457,-0.2745,-0.2742,-0.2739,0,-0.2682,-0.2696,-0.2787,-0.2805,-0.2841,-0.2895,-0.293,-0.3041,-0.3079,-0.317,-0.3172,-0.3156,-0.31,-0.2979,-0.2888,-0.2769,-0.2771,-0.2593,-0.2599,-0.2561,-0.2579,-0.2608,-0.256,-0.2448,-0.2443,-0.2439,-0.2436,0,-0.2587,-0.2619,-0.2652,-0.2693,-0.2729,-0.2773,-0.2837,-0.2863,-0.2986,-0.3009,-0.3017,-0.2982,-0.289,-0.2726,-0.2589,-0.2516,-0.2534,-0.2509,-0.2505,-0.236,-0.2353,-0.2282,-0.2538,-0.2403,-0.2406,-0.2408,-0.241,-0.2412,-0.249,-0.2487,-0.2529,-0.255,-0.2592,-0.261,-0.2597,-0.2679,-0.2695,-0.2701,-0.2791,-0.2698,-0.2612,-0.2403,-0.2326,-0.2173,-0.2255,-0.2115,-0.216,-0.2196,-0.2116,-0.2281,-0.2101,-0.2102,-0.2104,-0.2105,-0.2106,0,-0.2352,-0.2365,-0.2384,-0.2402,-0.2381,-0.2456,-0.2496,-0.2455,-0.2412,-0.2457,-0.2424,-0.2343,-0.2167,-0.2111,-0.1969,-0.1866,-0.1837,-0.1831,-0.1864,-0.1833,-0.199,-0.1965,-0.1704,-0.1704,-0.1704,-0.1704,-0.1704,-0.1704,-0.2281,-0.2242,-0.2255,-0.2169,-0.2178,-0.2105,-0.2088,-0.2053,-0.2052,-0.1965,-0.1951,-0.1969,-0.193,-0.1993,-0.1829,-0.1735,-0.1706,-0.1643,-0.1683,-0.1827,-0.1859,-0.1889,-0.187,-0.1594,-0.1594,-0.1458,-0.1457,-0.1456]},{"header":{"parameterUnit":"m.s-1","parameterCategory":2,"la1":30.2991,"la2":30.254,"lo1":-89.0895,"lo2":-89.0444,"dy":0.0017,"dx":0.0017,"nx":28,"ny":28,"refTime":"2025-12-21T09:00:00:Z","depth":"0","parameterNumber":3,"parameterNumberName":"V-component_of_CURRENTS"},"data":[0,0,0,0,0,0,0,0,0,0,0,0,0,0,0,0,0,0,0,0,0,0,0,0,0,0,0,0,0,0,0,0,0,0,0,0,0,0,0,0,0,0,0,0,0,0,0,0,0,0,0,0,0,0,0,0,0,0,-0.03,-0.0299,0,-0.0204,-0.0202,-0.0201,-0.013,-0.013,-0.013,-0.0129,0.0016,0.002,0.0023,0,0,0,0,0,0,0,0,0,0,0,0,0,-0.0362,-0.0361,-0.03,-0.0299,-0.0298,-0.0204,-0.0202,-0.0201,-0.013,-0.013,-0.0129,-0.0129,0.0015,0.0019,0.0023,0,0,0,0,0,0,0,0,0,0,0,0,0,-0.0305,-0.0361,-0.03,-0.0253,-0.0248,-0.0204,-0.0202,-0.02,-0.0131,-0.013,-0.0129,-0.0129,0.0014,0.0019,0.0024,0.0044,0,0,0.004,0.0042,0,0,0,0,0,0,0,0,-0.0309,-0.0303,-0.0261,-0.0256,-0.025,-0.018,-0.0171,-0.0117,-0.0131,-0.0173,-0.0129,-0.0129,-0.0047,-0.0037,-0.0017,0.0051,0.0057,0.004,0.0044,0.0046,0.0047,0,0,0,0,0,0,0,-0.0313,-0.0306,-0.0259,-0.026,-0.0254,-0.0216,-0.0208,-0.016,-0.0112,-0.0169,-0.0164,-0.0157,-0.0043,-0.0023,-0.0013,0.0059,0.004,0.0045,0.0048,0.005,0.0166,0.0166,0,0,0,0,0,0,-0.0333,-0.031,-0.0262,-0.0257,-0.0281,-0.0216,-0.0207,-0.0202,-0.0113,-0.01,-0.0158,-0.0155,-0.0032,-0.002,-0.0008,0.0029,0.0046,0.0051,0.0054,0.0166,0.0166,0.0166,0,0,0,0,0,0,-0.0335,-0.033,-0.0266,-0.0283,-0.0272,-0.0216,-0.0211,-0.02,-0.018,-0.0106,-0.0091,-0.0149,-0.0031,-0.0015,0.0033,0.0035,0.0053,0.0058,0.0166,0.0166,0.0166,0.0099,0,0,0,0,0,0,-0.0337,-0.0331,-0.0336,-0.0285,-0.0272,-0.0249,-0.0211,-0.0199,-0.0177,-0.0172,-0.0093,-0.0079,-0.0029,0.0025,0.0038,0.0043,0.0062,0.0166,0.0166,0.0166,0.0101,0.0097,0.0093,0,0,0,0,0,-0.034,-0.0351,-0.0337,-0.0331,-0.028,-0.025,-0.0241,-0.0196,-0.0178,-0.0175,-0.0119,-0.0082,0.0033,0.0029,0.0045,0.0051,0.0166,0.0166,0.0166,0.0103,0.0098,0.0093,0,0,0,0,0,0,-0.038,-0.0344,-0.0327,-0.0327,-0.0295,-0.0239,-0.0234,-0.0204,-0.0158,-0.0152,-0.008,-0.0063,-0.0019,0.0022,0.0015,0.0083,0.0105,0.0108,0.0052,0.0048,0.0043,0.0019,0.0066,0,0,0,0,0,-0.0394,-0.0393,-0.035,-0.035,-0.0339,-0.0288,-0.0271,-0.0243,-0.0196,-0.0175,-0.0121,-0.0062,-0.0008,0.0023,0.0073,0.011,0.0159,0.0124,0.0119,0.0115,0.0106,0.0187,0.0189,0.0165,0.0165,0.0165,0,0,-0.0409,-0.039,-0.0389,-0.0359,-0.0331,-0.0323,-0.0276,-0.0258,-0.0245,-0.0167,-0.0133,-0.0076,-0.0002,0.0041,0.0064,0.0076,0.0148,0.0115,0.0111,0.0105,0.0187,0.019,0.0192,0.0165,0.0165,0.0165,0,0,-0.0447,-0.0425,-0.0439,-0.0419,-0.0388,-0.0354,-0.0354,-0.0303,-0.0273,-0.0237,-0.0174,-0.0116,-0.0044,0.0017,0.0056,0.0057,0.012,0.0069,0.0033,0.0111,0.0114,0.0117,0.0179,0.0189,0.0069,0.0069,0.0069,0,-0.047,-0.0479,-0.0438,-0.0447,-0.0436,-0.0374,-0.0385,-0.0345,-0.0284,-0.0256,-0.0238,-0.0113,-0.0053,0.0018,0.0016,0.0049,0.0094,0.0046,0.0106,0.011,0.0114,0.0177,0.0188,0.0066,0.0066,0.0067,0.0067,0,-0.0516,-0.0523,-0.053,-0.0519,-0.05,-0.0499,-0.0445,-0.0417,-0.0374,-0.0325,-0.0255,-0.0167,-0.009,-0.0062,-0.0023,0.0037,0.0059,0.0089,0.0116,0.0112,0.018,0.0192,0.0061,0.0062,0.0063,0.0064,0,0,-0.0565,-0.0566,-0.0568,-0.0578,-0.054,-0.053,-0.0504,-0.0457,-0.043,-0.0362,-0.0317,-0.0222,-0.0166,-0.0119,-0.0051,0.0011,0.0081,0.0049,0.0054,0.0105,0.0241,0.0288,0.0307,0.0119,0.0121,0.0123,0.0275,0,-0.0614,-0.066,-0.0633,-0.066,-0.0677,-0.0612,-0.0593,-0.0537,-0.047,-0.0408,-0.0303,-0.0239,-0.0188,-0.015,-0.0077,0.0048,0.011,0.0036,0.0242,0.0248,0.0286,0.0322,0.0361,0.0502,0.0287,0.029,0.0291,0,-0.0667,-0.0692,-0.0739,-0.0737,-0.0735,-0.0732,-0.0679,-0.0651,-0.0541,-0.0487,-0.0393,-0.0307,-0.0194,-0.016,0.0047,-0.0004,0.0102,0.0191,0.02,0.0275,0.0319,0.0474,0.0534,0.0681,0.0311,0.031,0.0308,0,-0.0733,-0.0759,-0.0802,-0.0804,-0.079,-0.0786,-0.0765,-0.0678,-0.0646,-0.0532,-0.0486,-0.0339,-0.0254,-0.0105,0.0088,0.0068,0.0313,0.0321,0.0462,0.0466,0.0555,0.0565,0.0779,0.0452,0.0452,0.0452,0.0451,0,-0.0799,-0.0829,-0.084,-0.0866,-0.0901,-0.0858,-0.0855,-0.0804,-0.0718,-0.067,-0.0534,-0.0451,-0.0239,-0.0068,0.0087,0.0328,0.0327,0.0464,0.0516,0.0532,0.0537,0.0714,0.0762,0.0457,0.0456,0.0455,0.0454,0,-0.0866,-0.0874,-0.0925,-0.0935,-0.0939,-0.0963,-0.0936,-0.0922,-0.083,-0.0757,-0.0727,-0.052,-0.0286,-0.0064,0.0205,0.0339,0.0657,0.0629,0.0626,0.0674,0.0918,0.0958,0.1214,0.131,0.0804,0.0806,0.0808,0,-0.0906,-0.0943,-0.0991,-0.1026,-0.1035,-0.1056,-0.1065,-0.0993,-0.0963,-0.0788,-0.0753,-0.0518,-0.0318,0.0103,0.0377,0.0675,0.078,0.0861,0.083,0.0951,0.1036,0.1059,0.1121,0.0925,0.0928,0.093,0.0931,0,-0.0977,-0.0993,-0.1037,-0.1119,-0.1151,-0.1176,-0.1173,-0.1168,-0.1056,-0.095,-0.0759,-0.0583,-0.0167,0.0209,0.0584,0.076,0.0976,0.0913,0.1061,0.1167,0.1188,0.1298,0.0788,0.0951,0.0949,0.0947,0.0946,0.0946,-0.1018,-0.1072,-0.1132,-0.12,-0.1243,-0.1273,-0.1275,-0.1227,-0.1148,-0.095,-0.0779,-0.0451,0.0053,0.0607,0.0802,0.1202,0.1155,0.1312,0.1357,0.1373,0.1454,0.0972,0.1175,0.1175,0.1174,0.1174,0.1173,0,-0.1065,-0.1124,-0.1206,-0.1279,-0.1331,-0.133,-0.1322,-0.1264,-0.1146,-0.0922,-0.0685,-0.0078,0.0418,0.0865,0.1416,0.1629,0.167,0.1736,0.1786,0.1833,0.1443,0.1435,0.1678,0.1678,0.1678,0.1678,0.1678,0.1677,-0.109,-0.1179,-0.1225,-0.1326,-0.1372,-0.1385,-0.1367,-0.1227,-0.1049,-0.0636,-0.0266,0.0026,0.0657,0.149,0.1984,0.2033,0.2206,0.2198,0.229,0.2015,0.1978,0.1943,0.195,0.2297,0.2298,0.2671,0.2675,0.2677]}],[{"header":{"parameterUnit":"m.s-1","parameterCategory":2,"la1":30.2991,"la2":30.254,"lo1":-89.0895,"lo2":-89.0444,"dy":0.0017,"dx":0.0017,"nx":28,"ny":28,"refTime":"2025-12-21T09:00:00:Z","depth":"2","parameterNumber":2,"parameterNumberName":"U-component_of_CURRENTS"},"data":[0,0,0,0,0,0,0,0,0,0,0,0,0,0,0,0,0,0,0,0,0,0,0,0,0,0,0,0,0,0,0,0,0,0,0,0,0,0,0,0,0,0,0,0,0,0,0,0,0,0,0,0,0,0,0,0,0,0,-0.2579,-0.2579,0,-0.2608,-0.2608,-0.2608,-0.2579,-0.2578,-0.2577,-0.2576,-0.2561,-0.2561,-0.2562,0,0,0,0,0,0,0,0,0,0,0,0,0,-0.2505,-0.2506,-0.2578,-0.2579,-0.258,-0.2608,-0.2608,-0.2608,-0.2579,-0.2578,-0.2577,-0.2576,-0.2561,-0.2561,-0.2562,0,0,0,0,0,0,0,0,0,0,0,0,0,-0.2534,-0.2507,-0.2578,-0.257,-0.257,-0.2608,-0.2608,-0.2608,-0.258,-0.2578,-0.2577,-0.2575,-0.2561,-0.2561,-0.2562,-0.2595,0,0,-0.2564,-0.2565,0,0,0,0,0,0,0,0,-0.2532,-0.2536,-0.2571,-0.2571,-0.2571,-0.259,-0.2577,-0.2602,-0.258,-0.2574,-0.2576,-0.2575,-0.2569,-0.2569,-0.2575,-0.2594,-0.2593,-0.2564,-0.2565,-0.2565,-0.2565,0,0,0,0,0,0,0,-0.253,-0.2535,-0.2588,-0.2572,-0.2572,-0.2568,-0.257,-0.2582,-0.2576,-0.2574,-0.2573,-0.258,-0.2568,-0.2575,-0.2575,-0.2593,-0.2564,-0.2565,-0.2565,-0.2566,-0.2619,-0.262,0,0,0,0,0,0,-0.2533,-0.2533,-0.2587,-0.2589,-0.255,-0.2571,-0.2573,-0.2584,-0.2577,-0.2576,-0.2581,-0.2578,-0.2574,-0.2574,-0.2574,-0.2604,-0.2565,-0.2566,-0.2566,-0.2618,-0.2619,-0.262,0,0,0,0,0,0,-0.2531,-0.2537,-0.2586,-0.2563,-0.2569,-0.2574,-0.2586,-0.2585,-0.2589,-0.2583,-0.258,-0.2585,-0.2573,-0.2573,-0.2585,-0.2603,-0.2566,-0.2567,-0.2617,-0.2618,-0.262,-0.2669,0,0,0,0,0,0,-0.2529,-0.2537,-0.2544,-0.2564,-0.2571,-0.2611,-0.2587,-0.2587,-0.2597,-0.2593,-0.2586,-0.2583,-0.2572,-0.2584,-0.2585,-0.2603,-0.2567,-0.2615,-0.2617,-0.2619,-0.2666,-0.2672,-0.2677,0,0,0,0,0,-0.2526,-0.2542,-0.2544,-0.255,-0.2581,-0.2612,-0.2615,-0.2611,-0.2598,-0.2607,-0.26,-0.2583,-0.2596,-0.2586,-0.2587,-0.2606,-0.2614,-0.2617,-0.2619,-0.2664,-0.2671,-0.2677,0,0,0,0,0,0,-0.2512,-0.2541,-0.2544,-0.2566,-0.2589,-0.2607,-0.2615,-0.2617,-0.2621,-0.2614,-0.2601,-0.2599,-0.2616,-0.2607,-0.2595,-0.2626,-0.2601,-0.2604,-0.2635,-0.2641,-0.2647,-0.2642,-0.2568,0,0,0,0,0,-0.2515,-0.253,-0.2561,-0.2577,-0.2591,-0.2605,-0.2616,-0.262,-0.2628,-0.2628,-0.2626,-0.2623,-0.263,-0.2631,-0.2635,-0.2657,-0.2633,-0.2668,-0.2674,-0.2678,-0.2676,-0.2664,-0.2668,-0.2627,-0.2627,-0.2627,0,0,-0.2511,-0.253,-0.2537,-0.2575,-0.2588,-0.2617,-0.2607,-0.263,-0.265,-0.2627,-0.2647,-0.2645,-0.264,-0.2661,-0.2667,-0.2653,-0.2677,-0.2681,-0.2685,-0.268,-0.2667,-0.2671,-0.2674,-0.2629,-0.2629,-0.2628,0,0,-0.2514,-0.2532,-0.2548,-0.2575,-0.2608,-0.2624,-0.2634,-0.2662,-0.2667,-0.2694,-0.2681,-0.269,-0.2702,-0.2702,-0.2703,-0.2743,-0.2708,-0.2745,-0.2768,-0.2757,-0.276,-0.2763,-0.2733,-0.2732,-0.2746,-0.2746,-0.2746,0,-0.2508,-0.2535,-0.2557,-0.2587,-0.2609,-0.2629,-0.2657,-0.2678,-0.2704,-0.2713,-0.2703,-0.2721,-0.2721,-0.274,-0.2754,-0.2756,-0.2734,-0.2744,-0.2764,-0.2765,-0.2767,-0.2735,-0.2734,-0.2749,-0.2748,-0.2748,-0.2748,0,-0.2526,-0.2554,-0.2568,-0.261,-0.2639,-0.2667,-0.2706,-0.273,-0.2739,-0.2755,-0.2776,-0.2776,-0.2782,-0.279,-0.2786,-0.2803,-0.2779,-0.2773,-0.2745,-0.2774,-0.2739,-0.2737,-0.2752,-0.2751,-0.2751,-0.275,0,0,-0.2493,-0.2565,-0.2569,-0.2594,-0.2654,-0.2678,-0.2723,-0.2764,-0.2785,-0.2806,-0.2825,-0.2844,-0.2837,-0.2837,-0.2833,-0.2829,-0.2827,-0.2809,-0.2807,-0.2775,-0.2786,-0.2694,-0.2682,-0.2823,-0.2823,-0.2823,-0.2755,0,-0.2495,-0.2548,-0.2588,-0.2636,-0.2665,-0.2711,-0.2751,-0.2793,-0.2818,-0.2846,-0.2851,-0.2866,-0.2857,-0.2859,-0.2857,-0.2842,-0.2823,-0.2845,-0.2766,-0.2763,-0.2675,-0.2678,-0.2487,-0.2404,-0.2752,-0.2752,-0.2751,0,-0.2491,-0.2531,-0.2578,-0.2649,-0.2666,-0.27,-0.2758,-0.2799,-0.2851,-0.287,-0.2886,-0.2891,-0.2901,-0.2883,-0.2854,-0.2866,-0.2828,-0.2805,-0.2802,-0.2695,-0.2667,-0.2433,-0.2386,-0.2747,-0.2747,-0.2747,-0.2748,0,-0.2439,-0.2518,-0.2551,-0.2577,-0.2665,-0.269,-0.2734,-0.2796,-0.2825,-0.2878,-0.2892,-0.2909,-0.2901,-0.2878,-0.2837,-0.2846,-0.2786,-0.2791,-0.2664,-0.2657,-0.2467,-0.2443,-0.2751,-0.2751,-0.2751,-0.2752,-0.2752,0,-0.2418,-0.2442,-0.2529,-0.2547,-0.2584,-0.2661,-0.2698,-0.2748,-0.2812,-0.2834,-0.2889,-0.289,-0.2898,-0.2869,-0.2837,-0.2733,-0.2779,-0.2658,-0.2632,-0.2478,-0.2457,-0.2736,-0.2735,-0.2749,-0.2749,-0.275,-0.275,0,-0.2344,-0.2407,-0.2444,-0.2533,-0.2557,-0.2579,-0.2663,-0.269,-0.2766,-0.2795,-0.2809,-0.2864,-0.2825,-0.2808,-0.276,-0.2705,-0.2639,-0.2584,-0.2395,-0.2348,-0.2517,-0.252,-0.2441,-0.2438,-0.2434,-0.2432,-0.2429,0,-0.2308,-0.2319,-0.2403,-0.2418,-0.2453,-0.2503,-0.2534,-0.2639,-0.267,-0.276,-0.2759,-0.2761,-0.271,-0.2614,-0.2535,-0.2437,-0.2527,-0.2207,-0.2194,-0.2502,-0.2485,-0.2493,-0.25,-0.196,-0.1954,-0.1949,-0.1945,0,-0.2222,-0.2251,-0.2281,-0.2313,-0.2345,-0.2381,-0.2438,-0.2455,-0.2569,-0.2587,-0.2594,-0.2565,-0.2498,-0.2311,-0.2207,-0.2135,-0.2217,-0.2104,-0.2459,-0.2076,-0.2044,-0.203,-0.2053,-0.1902,-0.1906,-0.1909,-0.1911,-0.1913,-0.2138,-0.2132,-0.2166,-0.2179,-0.2216,-0.2221,-0.2195,-0.2262,-0.2266,-0.2253,-0.2351,-0.2237,-0.2218,-0.1947,-0.1845,-0.1774,-0.1926,-0.1839,-0.1855,-0.1876,-0.1841,-0.1806,-0.1611,-0.1614,-0.1616,-0.1618,-0.162,0,-0.2015,-0.2019,-0.2029,-0.2035,-0.2007,-0.2078,-0.2093,-0.2029,-0.1965,-0.1988,-0.195,-0.1725,-0.1598,-0.1592,-0.1411,-0.1375,-0.1377,-0.1319,-0.1325,-0.1367,-0.1405,-0.1349,-0.0987,-0.0985,-0.0983,-0.0982,0,0,-0.1951,-0.1905,-0.1906,-0.1809,-0.1811,-0.1712,-0.1678,-0.1604,-0.1574,-0.1446,-0.1387,-0.1495,-0.1527,-0.1256,-0.1195,-0.106,-0.1202,-0.1004,-0.1509,-0.1556,-0.1592,-0.1698,-0.1657,0,0,0,0,0]},{"header":{"parameterUnit":"m.s-1","parameterCategory":2,"la1":30.2991,"la2":30.254,"lo1":-89.0895,"lo2":-89.0444,"dy":0.0017,"dx":0.0017,"nx":28,"ny":28,"refTime":"2025-12-21T09:00:00:Z","depth":"2","parameterNumber":3,"parameterNumberName":"V-component_of_CURRENTS"},"data":[0,0,0,0,0,0,0,0,0,0,0,0,0,0,0,0,0,0,0,0,0,0,0,0,0,0,0,0,0,0,0,0,0,0,0,0,0,0,0,0,0,0,0,0,0,0,0,0,0,0,0,0,0,0,0,0,0,0,-0.0329,-0.0329,0,-0.0248,-0.0247,-0.0246,-0.0186,-0.0185,-0.0185,-0.0185,-0.0061,-0.0058,-0.0055,0,0,0,0,0,0,0,0,0,0,0,0,0,-0.0377,-0.0377,-0.0329,-0.0329,-0.0328,-0.0248,-0.0247,-0.0246,-0.0186,-0.0185,-0.0185,-0.0185,-0.0062,-0.0058,-0.0055,0,0,0,0,0,0,0,0,0,0,0,0,0,-0.033,-0.0376,-0.033,-0.029,-0.0285,-0.0249,-0.0247,-0.0245,-0.0186,-0.0185,-0.0185,-0.0184,-0.0063,-0.0059,-0.0054,-0.0037,0,0,-0.0041,-0.0039,0,0,0,0,0,0,0,0,-0.0333,-0.0329,-0.0296,-0.0292,-0.0288,-0.0228,-0.0219,-0.0174,-0.0186,-0.0222,-0.0185,-0.0184,-0.0115,-0.0106,-0.0089,-0.0031,-0.0026,-0.004,-0.0037,-0.0036,-0.0034,0,0,0,0,0,0,0,-0.0337,-0.0331,-0.0295,-0.0296,-0.029,-0.0257,-0.025,-0.021,-0.017,-0.0218,-0.0214,-0.0209,-0.0111,-0.0094,-0.0086,-0.0024,-0.004,-0.0036,-0.0034,-0.0032,0.0065,0.0065,0,0,0,0,0,0,-0.0354,-0.0335,-0.0298,-0.0293,-0.0312,-0.0257,-0.0249,-0.0246,-0.0171,-0.016,-0.0209,-0.0206,-0.0102,-0.0091,-0.0081,-0.005,-0.0036,-0.0031,-0.0029,0.0065,0.0065,0.0065,0,0,0,0,0,0,-0.0356,-0.0352,-0.0301,-0.0313,-0.0305,-0.0257,-0.0254,-0.0245,-0.0228,-0.0165,-0.0152,-0.0202,-0.0101,-0.0088,-0.0047,-0.0045,-0.0029,-0.0025,0.0065,0.0065,0.0065,0.0008,0,0,0,0,0,0,-0.0357,-0.0353,-0.0358,-0.0315,-0.0305,-0.0287,-0.0255,-0.0244,-0.0226,-0.0221,-0.0154,-0.0142,-0.01,-0.0054,-0.0042,-0.0039,-0.0022,0.0066,0.0065,0.0065,0.001,0.0006,0.0002,0,0,0,0,0,-0.0359,-0.0371,-0.0359,-0.0354,-0.0313,-0.0288,-0.028,-0.0242,-0.0227,-0.0224,-0.0176,-0.0144,-0.0047,-0.005,-0.0037,-0.0032,0.0066,0.0065,0.0065,0.0012,0.0007,0.0002,0,0,0,0,0,0,-0.0394,-0.0365,-0.035,-0.0353,-0.0326,-0.0279,-0.0275,-0.0249,-0.021,-0.0205,-0.0143,-0.0128,-0.0091,-0.0057,-0.0062,-0.0005,0.0014,0.0016,-0.0031,-0.0035,-0.0039,-0.0059,-0.0018,0,0,0,0,0,-0.0406,-0.0407,-0.0371,-0.0373,-0.0364,-0.0321,-0.0306,-0.0282,-0.0242,-0.0225,-0.0178,-0.0128,-0.0082,-0.0056,-0.0013,0.0017,0.0059,0.0028,0.0025,0.0021,0.0014,0.0081,0.0083,0.0064,0.0064,0.0064,0,0,-0.042,-0.0405,-0.0405,-0.0381,-0.0357,-0.0351,-0.031,-0.0296,-0.0285,-0.0217,-0.019,-0.014,-0.0078,-0.0041,-0.0022,-0.0011,0.0048,0.0021,0.0017,0.0012,0.0081,0.0083,0.0085,0.0064,0.0064,0.0064,0,0,-0.0453,-0.0436,-0.0449,-0.0433,-0.0407,-0.0378,-0.0378,-0.0335,-0.031,-0.0279,-0.0225,-0.0175,-0.0115,-0.0062,-0.0029,-0.0029,0.0024,-0.002,-0.0051,0.0015,0.0017,0.0019,0.0071,0.0078,-0.002,-0.002,-0.002,0,-0.0473,-0.0483,-0.0449,-0.0456,-0.0449,-0.0396,-0.0406,-0.0373,-0.0321,-0.0298,-0.0281,-0.0174,-0.0122,-0.0063,-0.0064,-0.0036,0.0001,-0.0039,0.001,0.0013,0.0017,0.0069,0.0078,-0.0023,-0.0023,-0.0022,-0.0022,0,-0.0513,-0.0521,-0.0528,-0.0519,-0.0505,-0.0506,-0.046,-0.0437,-0.0401,-0.036,-0.03,-0.0223,-0.0157,-0.0133,-0.0098,-0.0048,-0.003,-0.0004,0.0019,0.0015,0.007,0.0081,-0.0027,-0.0026,-0.0025,-0.0024,0,0,-0.0556,-0.0559,-0.0561,-0.0572,-0.054,-0.0535,-0.0514,-0.0476,-0.0457,-0.0395,-0.0359,-0.0275,-0.0225,-0.0185,-0.0125,-0.0072,-0.0014,-0.0039,-0.0034,0.0007,0.012,0.0145,0.0159,0.0019,0.0021,0.0022,0.0147,0,-0.06,-0.0641,-0.0619,-0.0646,-0.0662,-0.0609,-0.0595,-0.055,-0.0494,-0.0444,-0.035,-0.0296,-0.0246,-0.0213,-0.0149,-0.0044,0.0011,-0.0051,0.0122,0.0126,0.0146,0.0171,0.0137,0.0247,0.0158,0.016,0.0161,0,-0.0645,-0.0668,-0.0712,-0.0717,-0.0717,-0.0717,-0.0679,-0.0657,-0.0567,-0.0521,-0.0439,-0.0362,-0.0263,-0.0228,-0.005,-0.0094,0.0,0.0078,0.0086,0.0135,0.0171,0.0239,0.027,0.0179,0.0177,0.0176,0.0175,0,-0.0703,-0.0729,-0.077,-0.0773,-0.0766,-0.0767,-0.0752,-0.0683,-0.0661,-0.0566,-0.053,-0.04,-0.0328,-0.0194,-0.0026,-0.0038,0.0167,0.0179,0.029,0.0293,0.0311,0.0313,0.0295,0.0295,0.0295,0.0295,0.0294,0,-0.076,-0.079,-0.0803,-0.0828,-0.0866,-0.0831,-0.0839,-0.0799,-0.0731,-0.0699,-0.0576,-0.0511,-0.0319,-0.0173,-0.0032,0.0169,0.0173,0.029,0.0333,0.029,0.0288,0.0264,0.0259,0.0299,0.0298,0.0297,0.0296,0,-0.0818,-0.0827,-0.0877,-0.0892,-0.0899,-0.0925,-0.0914,-0.0909,-0.0835,-0.0785,-0.0759,-0.0585,-0.0389,-0.0189,0.0045,0.0164,0.0348,0.0414,0.0344,0.0375,0.0427,0.0418,0.0548,0.055,0.0552,0.0553,0.0554,0,-0.0852,-0.0886,-0.0936,-0.0972,-0.0984,-0.1011,-0.1026,-0.0972,-0.0955,-0.0823,-0.0798,-0.0604,-0.0445,-0.0087,0.0152,0.0412,0.0412,0.0517,0.049,0.0428,0.0456,0.0444,0.0432,0.0493,0.0494,0.0494,0.0495,0,-0.0915,-0.0931,-0.0973,-0.1054,-0.1091,-0.1124,-0.1132,-0.1135,-0.1052,-0.0975,-0.0833,-0.0695,-0.0351,-0.0061,0.0265,0.041,0.0472,0.0535,0.0517,0.0426,0.0385,0.0409,0.0398,0.0499,0.0499,0.0498,0.0498,0.0498,-0.0951,-0.1001,-0.1059,-0.1128,-0.1176,-0.1216,-0.1228,-0.1199,-0.115,-0.1004,-0.0873,-0.0618,-0.036,0.0121,0.0343,0.0552,0.0546,0.0594,0.0589,0.0585,0.0548,0.0511,0.0642,0.0642,0.0642,0.0643,0.0643,0,-0.0996,-0.105,-0.1127,-0.1203,-0.126,-0.1266,-0.1277,-0.1242,-0.1164,-0.1001,-0.0823,-0.0495,-0.0171,0.0111,0.0438,0.0621,0.0601,0.0651,0.0582,0.0577,0.0572,0.0532,0.0624,0.0624,0.0625,0.0625,0,0,-0.102,-0.1102,-0.1143,-0.1247,-0.1298,-0.1331,-0.1328,-0.1241,-0.1113,-0.0924,-0.0723,-0.048,-0.0148,0.0078,0.0305,0.0476,0.0478,0.0493,0.0488,0.0374,0.0367,0.052,0.045,0,0,0,0,0]}],[{"header":{"parameterUnit":"m.s-1","parameterCategory":2,"la1":30.2991,"la2":30.254,"lo1":-89.0895,"lo2":-89.0444,"dy":0.0017,"dx":0.0017,"nx":28,"ny":28,"refTime":"2025-12-21T09:00:00:Z","depth":"4","parameterNumber":2,"parameterNumberName":"U-component_of_CURRENTS"},"data":[0,0,0,0,0,0,0,0,0,0,0,0,0,0,0,0,0,0,0,0,0,0,0,0,0,0,0,0,0,0,0,0,0,0,0,0,0,0,0,0,0,0,0,0,0,0,0,0,0,0,0,0,0,0,0,0,0,0,-0.1792,-0.1793,0,-0.1855,-0.1856,-0.1857,-0.1891,-0.1891,-0.1891,-0.1891,-0.1947,-0.1949,-0.195,0,0,0,0,0,0,0,0,0,0,0,0,0,-0.1703,-0.1704,-0.1792,-0.1793,-0.1794,-0.1855,-0.1856,-0.1857,-0.1891,-0.1891,-0.1891,-0.1892,-0.1947,-0.1948,-0.195,0,0,0,0,0,0,0,0,0,0,0,0,0,-0.175,-0.1705,-0.1792,-0.182,-0.1823,-0.1855,-0.1856,-0.1857,-0.1891,-0.1891,-0.1891,-0.1892,-0.1946,-0.1948,-0.195,-0.1955,0,0,-0.1956,-0.1957,0,0,0,0,0,0,0,0,-0.1747,-0.1753,-0.1814,-0.1818,-0.1821,-0.1867,-0.1845,-0.189,-0.1891,-0.1863,-0.1891,-0.1892,-0.1921,-0.1925,-0.1934,-0.1958,-0.196,-0.1956,-0.1957,-0.1958,-0.1959,0,0,0,0,0,0,0,-0.1744,-0.175,-0.1815,-0.1816,-0.182,-0.183,-0.1837,-0.1854,-0.1888,-0.1865,-0.1869,-0.1878,-0.1922,-0.1932,-0.1935,-0.1961,-0.1956,-0.1958,-0.1959,-0.196,-0.2055,-0.2056,0,0,0,0,0,0,-0.1739,-0.1747,-0.1813,-0.1817,-0.1786,-0.1831,-0.1839,-0.1851,-0.1888,-0.1894,-0.1878,-0.188,-0.1928,-0.1933,-0.1937,-0.2012,-0.1958,-0.196,-0.1961,-0.2053,-0.2055,-0.2056,0,0,0,0,0,0,-0.1737,-0.1745,-0.1811,-0.1785,-0.1794,-0.1833,-0.1845,-0.1852,-0.189,-0.1898,-0.1904,-0.1913,-0.1929,-0.1935,-0.1979,-0.2012,-0.1961,-0.1963,-0.2052,-0.2054,-0.2056,-0.2119,0,0,0,0,0,0,-0.1734,-0.1743,-0.1765,-0.1785,-0.1796,-0.1849,-0.1846,-0.1853,-0.1895,-0.1898,-0.193,-0.1933,-0.1929,-0.1976,-0.1981,-0.2014,-0.1964,-0.205,-0.2053,-0.2055,-0.2115,-0.2123,-0.213,0,0,0,0,0,-0.1731,-0.1753,-0.1766,-0.1775,-0.182,-0.1851,-0.1858,-0.1884,-0.1896,-0.1919,-0.1942,-0.1934,-0.1996,-0.1979,-0.1984,-0.2018,-0.2049,-0.2052,-0.2055,-0.2112,-0.2121,-0.213,0,0,0,0,0,0,-0.1728,-0.176,-0.1774,-0.1806,-0.1837,-0.1858,-0.1886,-0.1903,-0.194,-0.1952,-0.1955,-0.1961,-0.2011,-0.2007,-0.1988,-0.2052,-0.202,-0.2024,-0.2061,-0.207,-0.2078,-0.2069,-0.1966,0,0,0,0,0,-0.1737,-0.1763,-0.1793,-0.1822,-0.184,-0.187,-0.1892,-0.1912,-0.194,-0.1958,-0.1981,-0.2003,-0.2023,-0.2041,-0.2057,-0.2097,-0.2072,-0.212,-0.2127,-0.2134,-0.213,-0.2124,-0.213,-0.2067,-0.2066,-0.2066,0,0,-0.1745,-0.1766,-0.1782,-0.1824,-0.185,-0.1883,-0.1885,-0.1929,-0.1963,-0.1957,-0.202,-0.2034,-0.2039,-0.2081,-0.2103,-0.2086,-0.214,-0.2138,-0.2143,-0.2136,-0.2128,-0.2134,-0.2139,-0.2069,-0.2068,-0.2068,0,0,-0.176,-0.1793,-0.1817,-0.1848,-0.1895,-0.1914,-0.1934,-0.1977,-0.2007,-0.206,-0.2063,-0.2097,-0.2137,-0.2145,-0.2151,-0.2208,-0.2178,-0.222,-0.2253,-0.2248,-0.2253,-0.2257,-0.2234,-0.2236,-0.2224,-0.2224,-0.2224,0,-0.1771,-0.1803,-0.1831,-0.1864,-0.1893,-0.1931,-0.1966,-0.2001,-0.2056,-0.2081,-0.209,-0.2148,-0.2162,-0.2195,-0.222,-0.2225,-0.2209,-0.222,-0.2256,-0.226,-0.2263,-0.2239,-0.2239,-0.2228,-0.2227,-0.2227,-0.2227,0,-0.1793,-0.1835,-0.1855,-0.1906,-0.1943,-0.1982,-0.2029,-0.2077,-0.2117,-0.2144,-0.2201,-0.2219,-0.2247,-0.2264,-0.2264,-0.2297,-0.2276,-0.2265,-0.2232,-0.2273,-0.2245,-0.2245,-0.2233,-0.2231,-0.223,-0.2229,0,0,-0.177,-0.1854,-0.1865,-0.1898,-0.1971,-0.1998,-0.2065,-0.2121,-0.216,-0.2216,-0.2258,-0.2304,-0.2314,-0.2321,-0.2327,-0.2331,-0.2349,-0.2316,-0.2314,-0.2289,-0.2327,-0.2172,-0.2156,-0.2347,-0.2347,-0.2347,-0.2299,0,-0.1781,-0.1842,-0.1886,-0.1954,-0.1987,-0.2048,-0.2101,-0.2161,-0.2211,-0.2264,-0.2291,-0.2333,-0.2335,-0.2356,-0.2364,-0.2355,-0.2351,-0.2362,-0.2295,-0.2292,-0.2145,-0.2151,-0.2348,-0.2299,-0.2298,-0.2298,-0.2298,0,-0.1777,-0.1823,-0.1888,-0.1974,-0.1996,-0.2047,-0.2131,-0.2185,-0.2261,-0.2299,-0.2343,-0.2365,-0.2397,-0.2387,-0.2381,-0.239,-0.2365,-0.2348,-0.2345,-0.2174,-0.2135,-0.2249,-0.2297,-0.2297,-0.2297,-0.2297,-0.2297,0,-0.1723,-0.182,-0.1872,-0.1904,-0.2007,-0.2055,-0.2114,-0.2198,-0.2238,-0.2323,-0.2349,-0.2391,-0.2405,-0.2397,-0.2373,-0.2384,-0.2342,-0.2346,-0.2176,-0.2165,-0.2293,-0.2289,-0.2325,-0.2325,-0.2325,-0.2325,-0.2326,0,-0.1694,-0.174,-0.1859,-0.1887,-0.195,-0.2037,-0.2104,-0.2169,-0.2251,-0.2277,-0.2361,-0.2363,-0.2409,-0.2393,-0.2374,-0.2257,-0.2337,-0.2168,-0.2137,-0.2321,-0.2322,-0.2292,-0.2289,-0.2324,-0.2324,-0.2324,-0.2325,0,-0.1615,-0.1698,-0.1762,-0.1884,-0.1925,-0.197,-0.2086,-0.2119,-0.2217,-0.2252,-0.2277,-0.2344,-0.2315,-0.2325,-0.2298,-0.2224,-0.2155,-0.2093,-0.2277,-0.226,-0.1985,-0.1987,-0.1897,-0.1891,-0.1886,-0.1882,-0.1878,0,-0.1575,-0.1603,-0.1737,-0.1772,-0.1832,-0.1917,-0.1961,-0.2083,-0.2109,-0.2206,-0.2196,-0.2219,-0.2238,-0.2061,-0.2108,-0.2035,-0.2012,-0.1965,-0.1985,-0.196,-0.194,-0.1949,-0.1957,-0.187,-0.1869,-0.1867,-0.1866,0,-0.1488,-0.1552,-0.1604,-0.1673,-0.1736,-0.1788,-0.1864,-0.1864,-0.198,-0.2093,-0.2039,-0.2012,-0.1969,-0.1941,-0.1888,-0.1847,-0.1994,-0.1911,-0.1922,-0.1942,-0.1926,-0.1913,-0.1927,-0.1848,-0.1851,-0.1853,-0.1854,0,-0.142,-0.1431,-0.1503,-0.1545,-0.1618,-0.162,-0.1684,-0.17,-0.174,-0.1856,-0.1831,-0.1863,-0.1937,-0.184,-0.18,-0.1737,-0.1717,-0.1663,-0.1687,-0.1707,-0.1668,-0.1622,-0.1407,0,0,0,0,0,-0.1338,-0.1329,-0.1362,-0.1398,-0.1462,-0.1495,-0.1593,-0.1659,-0.1775,-0.1681,-0.1749,-0.1703,-0.1638,-0.1666,-0.1558,-0.1719,-0.1728,-0.1588,-0.1681,-0.1751,-0.1771,-0.1743,0,0,0,0,0,0,-0.1283,-0.1309,-0.1311,-0.1256,-0.1249,-0.1294,-0.1345,-0.1431,-0.1391,-0.1517,-0.1486,-0.1588,-0.1549,-0.1657,-0.1516,-0.1524,-0.1544,-0.1627,-0.1622,-0.1739,-0.1758,-0.1774,-0.1752,0,0,0,0,0]},{"header":{"parameterUnit":"m.s-1","parameterCategory":2,"la1":30.2991,"la2":30.254,"lo1":-89.0895,"lo2":-89.0444,"dy":0.0017,"dx":0.0017,"nx":28,"ny":28,"refTime":"2025-12-21T09:00:00:Z","depth":"4","parameterNumber":3,"parameterNumberName":"V-component_of_CURRENTS"},"data":[0,0,0,0,0,0,0,0,0,0,0,0,0,0,0,0,0,0,0,0,0,0,0,0,0,0,0,0,0,0,0,0,0,0,0,0,0,0,0,0,0,0,0,0,0,0,0,0,0,0,0,0,0,0,0,0,0,0,-0.0251,-0.0251,0,-0.0201,-0.0201,-0.02,-0.0162,-0.0162,-0.0162,-0.0162,-0.0074,-0.0072,-0.007,0,0,0,0,0,0,0,0,0,0,0,0,0,-0.0272,-0.0272,-0.0251,-0.0251,-0.025,-0.0201,-0.0201,-0.02,-0.0162,-0.0162,-0.0162,-0.0162,-0.0075,-0.0072,-0.0069,0,0,0,0,0,0,0,0,0,0,0,0,0,-0.0245,-0.0272,-0.0252,-0.0227,-0.0225,-0.0202,-0.0201,-0.0199,-0.0162,-0.0162,-0.0162,-0.0162,-0.0075,-0.0072,-0.0069,-0.0054,0,0,-0.0059,-0.0058,0,0,0,0,0,0,0,0,-0.0247,-0.0244,-0.0231,-0.0229,-0.0226,-0.0189,-0.0176,-0.015,-0.0163,-0.0184,-0.0162,-0.0162,-0.011,-0.0104,-0.0093,-0.005,-0.0046,-0.0059,-0.0057,-0.0055,-0.0054,0,0,0,0,0,0,0,-0.0249,-0.0246,-0.023,-0.0231,-0.0228,-0.0204,-0.02,-0.017,-0.0147,-0.0182,-0.018,-0.0177,-0.0108,-0.0097,-0.0091,-0.0045,-0.0059,-0.0056,-0.0054,-0.0053,0.0017,0.0017,0,0,0,0,0,0,-0.0261,-0.0248,-0.0231,-0.0229,-0.0238,-0.0205,-0.02,-0.02,-0.0148,-0.0141,-0.0177,-0.0176,-0.0102,-0.0095,-0.0088,-0.0068,-0.0055,-0.0052,-0.005,0.0018,0.0017,0.0017,0,0,0,0,0,0,-0.0262,-0.026,-0.0234,-0.0238,-0.0233,-0.0205,-0.0205,-0.0199,-0.0191,-0.0145,-0.0137,-0.0176,-0.0102,-0.0092,-0.0064,-0.0064,-0.0051,-0.0048,0.0018,0.0017,0.0017,-0.0028,0,0,0,0,0,0,-0.0263,-0.0261,-0.0268,-0.0239,-0.0234,-0.0227,-0.0205,-0.0198,-0.019,-0.0187,-0.0141,-0.0132,-0.0101,-0.0069,-0.0061,-0.006,-0.0045,0.0018,0.0018,0.0017,-0.0026,-0.003,-0.0033,0,0,0,0,0,-0.0264,-0.0275,-0.0269,-0.0267,-0.0244,-0.0228,-0.0223,-0.02,-0.0191,-0.0191,-0.0158,-0.0134,-0.0064,-0.0067,-0.0057,-0.0055,0.0018,0.0018,0.0017,-0.0025,-0.0029,-0.0033,0,0,0,0,0,0,-0.0287,-0.0271,-0.0264,-0.027,-0.0254,-0.0222,-0.0223,-0.0206,-0.0181,-0.0178,-0.0134,-0.0123,-0.0098,-0.0072,-0.0076,-0.0035,-0.002,-0.0018,-0.0056,-0.0059,-0.0062,-0.0077,-0.0043,0,0,0,0,0,-0.0297,-0.0302,-0.028,-0.0286,-0.0281,-0.0253,-0.0246,-0.0231,-0.0204,-0.0193,-0.016,-0.0124,-0.0091,-0.0073,-0.0041,-0.002,0.0012,-0.0012,-0.0015,-0.0018,-0.0024,0.0029,0.0031,0.0017,0.0017,0.0017,0,0,-0.0309,-0.0301,-0.0304,-0.0292,-0.0278,-0.0276,-0.0248,-0.0241,-0.0237,-0.0187,-0.0172,-0.0134,-0.0088,-0.0062,-0.0049,-0.0041,0.0002,-0.0018,-0.0021,-0.0025,0.0029,0.0031,0.0032,0.0016,0.0017,0.0017,0,0,-0.0334,-0.0327,-0.034,-0.0331,-0.0317,-0.0299,-0.03,-0.0273,-0.0258,-0.0239,-0.0199,-0.0163,-0.012,-0.0081,-0.0056,-0.0057,-0.0017,-0.0051,-0.0075,-0.0024,-0.0022,-0.0021,0.0017,0.0022,-0.0051,-0.0051,-0.0051,0,-0.035,-0.0362,-0.0341,-0.0349,-0.0348,-0.0313,-0.0324,-0.0303,-0.0269,-0.0256,-0.0243,-0.0166,-0.0127,-0.0083,-0.0084,-0.0063,-0.0035,-0.0066,-0.0028,-0.0025,-0.0023,0.0015,0.0022,-0.0053,-0.0053,-0.0053,-0.0053,0,-0.0381,-0.0393,-0.0399,-0.0399,-0.0393,-0.0398,-0.0369,-0.0357,-0.0334,-0.0307,-0.0265,-0.0206,-0.0159,-0.0139,-0.0112,-0.0074,-0.006,-0.0039,-0.002,-0.0024,0.0016,0.0024,-0.0057,-0.0056,-0.0055,-0.0055,0,0,-0.0409,-0.0421,-0.0424,-0.0438,-0.0422,-0.0422,-0.0413,-0.0392,-0.0385,-0.034,-0.032,-0.0253,-0.0216,-0.0186,-0.0138,-0.0094,-0.0049,-0.0067,-0.0063,-0.0034,0.0054,0.0039,0.0046,-0.0021,-0.002,-0.0019,0.0072,0,-0.0442,-0.0479,-0.0468,-0.0498,-0.0514,-0.0483,-0.048,-0.0454,-0.0418,-0.0388,-0.0315,-0.0279,-0.0234,-0.0211,-0.0158,-0.0074,-0.003,-0.0077,0.0056,0.006,0.0045,0.0054,-0.0016,0.0078,0.008,0.0082,0.0083,0,-0.0473,-0.0496,-0.0538,-0.0556,-0.0559,-0.0569,-0.0556,-0.0547,-0.0488,-0.0459,-0.0398,-0.034,-0.0262,-0.0229,-0.0086,-0.0119,-0.0043,0.0021,0.0027,0.0033,0.0059,0.0086,0.0097,0.0096,0.0095,0.0094,0.0093,0,-0.0509,-0.0542,-0.0582,-0.0589,-0.06,-0.0611,-0.0611,-0.0572,-0.0564,-0.0501,-0.048,-0.0377,-0.0323,-0.0212,-0.0076,-0.008,0.0077,0.0094,0.0153,0.0153,0.0159,0.0156,0.0188,0.0188,0.0187,0.0187,0.0187,0,-0.0543,-0.0576,-0.0608,-0.0631,-0.0676,-0.0662,-0.0687,-0.0665,-0.0628,-0.0614,-0.0522,-0.0477,-0.0317,-0.0204,-0.0086,0.0058,0.0077,0.0148,0.0177,0.0137,0.013,0.0164,0.016,0.019,0.019,0.0189,0.0188,0,-0.0572,-0.0594,-0.0646,-0.0682,-0.0698,-0.0731,-0.0752,-0.0758,-0.0716,-0.069,-0.0673,-0.0544,-0.0395,-0.0234,-0.0044,0.0039,0.018,0.0225,0.0161,0.0186,0.0221,0.0213,0.0295,0.0295,0.0295,0.0295,0.0296,0,-0.0589,-0.0621,-0.0693,-0.0734,-0.0756,-0.0801,-0.0828,-0.0808,-0.0802,-0.0725,-0.0707,-0.057,-0.0467,-0.0201,-0.0044,0.0176,0.0204,0.0264,0.0246,0.0212,0.0233,0.0225,0.0218,0.0296,0.0296,0.0296,0.0296,0,-0.0619,-0.0651,-0.0694,-0.0783,-0.0834,-0.0881,-0.0908,-0.0911,-0.087,-0.0837,-0.0714,-0.0571,-0.0404,-0.02,-0.003,0.0126,0.0218,0.0267,0.0268,0.0251,0.0215,0.0233,0.0226,0.0297,0.0297,0.0297,0.0297,0,-0.0638,-0.0681,-0.0747,-0.0817,-0.0889,-0.0931,-0.0946,-0.0919,-0.0901,-0.0802,-0.0763,-0.057,-0.0454,-0.0226,-0.0068,0.0082,0.0114,0.0148,0.0156,0.0156,0.0085,0.0016,0.0064,0,0,0,0,0,-0.065,-0.0699,-0.0774,-0.0849,-0.0919,-0.0953,-0.0982,-0.0979,-0.0941,-0.0857,-0.0802,-0.0638,-0.0385,-0.0271,-0.0122,-0.0085,0.0118,0.009,0.0156,0.0301,0.0301,0.0238,0,0,0,0,0,0,-0.066,-0.0732,-0.0771,-0.0855,-0.0906,-0.097,-0.0989,-0.0967,-0.0905,-0.0845,-0.0701,-0.0617,-0.0366,-0.0461,-0.0119,-0.0076,-0.0019,0.0214,0.0217,0.0302,0.0301,0.03,0.0236,0,0,0,0,0]}]]